Location: Cedar Springs
(43.2230°N, 85.5510°W)
Time: 08:14:05
(UTC-04:00)

Cosmos 2278 Rocket - Visible Passes

Search period start: 30 October 2014 00:00
Search period end: 08 November 2014 23:00
Orbit: 842 x 845 km, 71.0° (Epoch: 30 October)

Date Brightness Start Highest point End Pass type
(mag) Time Alt. Az. Time Alt. Az. Time Alt. Az.
30 Oct 3.0 19:20:14 10° NNW 19:25:45 56° WSW 19:31:15 10° S visible
31 Oct 3.0 19:05:45 10° NNW 19:11:18 59° WSW 19:16:49 10° S visible
03 Nov 4.4 06:46:01 10° SSE 06:50:58 32° ESE 06:55:56 10° NE visible
04 Nov 4.4 06:31:37 10° SSE 06:36:31 31° ESE 06:41:25 10° NE visible
05 Nov 4.4 06:17:14 10° SSE 06:22:03 30° ESE 06:26:54 10° NE visible
06 Nov 4.4 06:02:51 10° SSE 06:07:36 29° ESE 06:12:22 10° NE visible
07 Nov 4.4 05:48:28 10° SSE 05:53:09 28° ESE 05:57:51 10° NE visible
07 Nov 5.8 18:12:28 10° W 18:13:06 10° W 18:13:44 10° WSW visible
08 Nov 4.4 05:34:06 10° SSE 05:38:42 26° ESE 05:43:19 10° NE visible
08 Nov 5.8 17:57:22 10° W 17:58:40 11° W 17:59:58 10° WSW visible
